Home   Weather   Korneuburg   Past weeks

Flag for Austria Past Weather in Korneuburg, Lower Austria, Austria — Yesterday and Last 2 Weeks

Now
80 °F

Partly sunny.


Feels Like: 81 °F
Forecast: 65 / 77 °F
Wind: 6 mph from South

Location: Wien / Hohe Warte

Current Time: Jun 28, 2017 at 11:01:53 am

Latest Report: Jun 28, 2017 at 10:00 am


Visibility: 25 mi

Pressure: 29.56 "Hg

Humidity: 50%

Dew Point: 60 °F

Location of KorneuburgLocation

Past Weather in Korneuburg — Graph

°F

Korneuburg Temperature Yesterday

Maximum temperature yesterday: 87 °F (at 4:00 pm)
Minimum temperature yesterday: 65 °F (at 5:00 am)
Average temperature yesterday: 76 °F

High & Low Weather Summary for the Past Weeks

 TemperatureHumidityPressure
High94 °F (Jun 22, 5:00 pm)93% (Jun 16, 7:00 am)30.24 "Hg (Jun 16, 7:00 am)
Low56 °F (Jun 15, 5:00 am)25% (Jun 16, 5:00 pm)29.57 "Hg (Jun 28, 9:00 am)
Average74 °F55%29.97 "Hg
* Reported Jun 13 9:00 am — Jun 28 9:00 am, Korneuburg. Weather by CustomWeather, © 2017

Note: Actual official high and low records may vary slightly from our data, if they occured in-between our weather recording intervals... More about our weather records

Advertising

Korneuburg Weather History for the Previous 24 Hours

Scroll right to see more
 ConditionsComfort  
Time TempWeatherWind HumidityBarometerVisibility
9:00 am
Wed, Jun 28
79 °FScattered clouds.2 mph52%29.57 "Hg25 mi
8:00 am73 °FScattered clouds.1 mph67%29.59 "Hg25 mi
7:00 am69 °FPassing clouds.2 mph77%29.61 "Hg25 mi
6:00 am66 °FMild.1 mph82%29.62 "HgN/A
5:00 am67 °FMild.2 mph79%29.62 "HgN/A
4:00 am69 °FMild.2 mph73%29.63 "HgN/A
3:00 am71 °FMild.2 mph69%29.65 "HgN/A
2:00 am72 °FClear.3 mph68%29.66 "Hg22 mi
1:00 am73 °FMild.2 mph68%29.67 "HgN/A
12:00 am74 °FMild.2 mph66%29.68 "HgN/A
11:00 pm
Tue, Jun 27
77 °FPassing clouds.2 mph60%29.70 "Hg22 mi
10:00 pm78 °FPassing clouds.3 mph55%29.70 "Hg28 mi
9:00 pm80 °FPassing clouds.5 mph50%29.69 "Hg28 mi
8:00 pm81 °FOvercast.5 mph47%29.70 "Hg31 mi
7:00 pm83 °FOvercast.5 mph45%29.70 "Hg31 mi
6:00 pm84 °FOvercast.7 mph43%29.71 "Hg31 mi
5:00 pm86 °FPartly sunny.7 mph42%29.72 "Hg31 mi
4:00 pm87 °FPartly sunny.5 mph42%29.74 "Hg37 mi
3:00 pm81 °FOvercast.3 mph54%29.78 "Hg37 mi
1:00 pm80 °FOvercast.2 mph55%29.79 "Hg31 mi
12:00 pm79 °FOvercast.5 mph58%29.81 "Hg31 mi
11:00 am81 °FOvercast.5 mph52%29.80 "Hg31 mi
Weather by CustomWeather, © 2017

See weather overviewHow to use our weather pages